Home > Weather > Swansea > Past weeks

Flag for United Kingdom Past Weather in Swansea, Wales, United Kingdom — Yesterday and Last 2 Weeks

Now
60 °F

Cool.


Feels Like: 58 °F
Forecast: 58 / 68 °F
Wind: 10 mph from Northwest

Location: Mumbles

Current Time: Aug 24, 2016 at 7:37:27 AM

Latest Report: Aug 24, 2016 at 6:00 AM


Visibility: N/A

Pressure: 30.12 "Hg

Humidity: 92%

Dew Point: 57 °F

Location of SwanseaLocation

Past Weather in Swansea — Graph

°F

Swansea Temperature Yesterday

Maximum temperature yesterday: 74 °F (at 3:00 PM)
Minimum temperature yesterday: 60 °F (at 6:00 AM)
Average temperature yesterday: 66 °F

High & Low Weather Summary for the Past Weeks

 TemperatureHumidityPressure
High74 °F (Aug 23, 3:00 PM)99% (Aug 13, 7:00 AM)30.40 "Hg (Aug 13, 7:00 AM)
Low54 °F (Aug 9, 6:00 AM)52% (Aug 9, 3:00 PM)29.47 "Hg (Aug 20, 6:00 AM)
Average63 °F83%30.10 "Hg
* Reported Aug 9 6:00 AM — Aug 24 6:00 AM, Swansea, Weather by CustomWeather, © 2016

Note: Actual official high and low records may vary slightly from our data, if they occured in-between our weather recording intervals... More about our weather records

Advertising

Swansea Weather History for the Previous 24 Hours

Scroll right to see more
 ConditionsComfort  
Time TempWeatherWind HumidityBarometerVisibility
6:00 AM
Wed, Aug 24
60 °FCool.10 mph92%30.12 "HgN/A
5:00 AM61 °FCool.10 mph90%30.11 "HgN/A
4:00 AM61 °FCool.13 mph90%30.11 "HgN/A
3:00 AM62 °FCool.10 mph91%30.11 "HgN/A
2:00 AM62 °FCool.13 mph94%30.10 "HgN/A
1:00 AM63 °FMild.5 mph97%30.11 "HgN/A
12:00 AM64 °FMild.9 mph96%30.11 "HgN/A
11:00 PM
Tue, Aug 23
65 °FMild.5 mph92%30.11 "HgN/A
10:00 PM65 °FMild.8 mph89%30.10 "HgN/A
9:00 PM68 °FMild.6 mph81%30.09 "HgN/A
8:00 PM69 °FMild.5 mph80%30.08 "HgN/A
7:00 PM71 °FMild.5 mph74%30.07 "HgN/A
6:00 PM71 °FMild.14 mph74%30.08 "HgN/A
5:00 PM72 °FMild.17 mph69%30.08 "HgN/A
4:00 PM72 °FMild.17 mph67%30.09 "HgN/A
3:00 PM74 °FMild.15 mph66%30.10 "HgN/A
2:00 PM71 °FMild.9 mph72%30.11 "HgN/A
1:00 PM72 °FMild.17 mph68%30.12 "HgN/A
12:00 PM70 °FMild.23 mph71%30.13 "HgN/A
11:00 AM69 °FMild.20 mph75%30.14 "HgN/A
10:00 AM67 °FMild.14 mph80%30.17 "HgN/A
9:00 AM63 °FMild.13 mph89%30.19 "HgN/A
8:00 AM61 °FCool.12 mph96%30.20 "HgN/A
7:00 AM60 °FCool.12 mph97%30.20 "HgN/A
Weather by CustomWeather, © 2016

See weather overviewHow to use our weather pages